Helicity
76 62 78 68 77 87 85 77 102 91 90 86 63 64 66 62 82 42 40 17 -13 -1 5 -13 9 21 54 54 78 59 -10 5 9 1 3 13 29 50 31 88 61 60 66 112 151
92 85 83 82 81 82 92 83 101 99 83 84 61 59 75 61 46 23 5 26 -9 7 -6 -8 -20 11 -3 42 69 49 -2 -4 25 28 21 17 25 49 76 114 102 80 87 137 138
92 92 86 98 94 91 88 88 96 91 96 74 64 62 67 70 33 29 11 20 13 20 -4 -18 -10 28 -12 56 59 24 23 -19 -9 22 29 9 26 51 68 85 100 104 125 126 133
92 100 102 97 97 94 90 85 97 84 86 74 61 64 68 38 41 40 22 2 4 17 -6 -21 -25 -68 -40 -6 55 -6 -21 10 -1 13 19 -0 -6 24 58 24 63 86 89 114 126
87 96 98 103 108 104 94 93 94 82 75 62 52 44 41 47 57 27 27 14 -0 -1 -6 -27 -34 -56 -35 6 19 -1 -10 -8 6 14 14 4 4 8 8 28 74 97 99 83 97
92 96 103 102 102 105 107 92 91 70 62 43 27 18 30 36 37 20 14 8 4 4 24 10 9 62 -2 4 33 4 -29 -28 -30 -39 2 -10 9 -7 -21 29 65 90 95 66 75
105 101 110 112 107 104 101 85 81 73 50 9 -0 13 21 34 42 28 14 24 17 38 39 57 66 46 21 -39 12 -33 -6 3 23 -24 10 2 80 -11 -47 8 50 84 95 113 79
121 119 117 126 122 118 103 84 79 35 10 -6 1 14 31 35 41 22 22 31 22 36 60 49 54 35 29 20 -21 -39 -11 3 87 -14 19 9 30 -0 -20 16 51 80 118 116 109
131 132 133 137 147 137 114 98 21 8 -4 -5 4 29 35 33 32 35 20 31 34 36 50 44 37 38 9 8 -0 11 -20 37 47 20 -4 -6 -16 6 -16 13 61 79 120 111 111
148 147 154 160 157 138 129 14 19 -0 8 14 31 32 27 53 54 47 43 35 43 36 26 19 24 19 13 -2 9 32 16 41 42 47 24 15 8 18 18 22 61 85 105 111 81
149 156 164 176 184 156 88 22 19 9 20 61 75 98 43 63 45 46 45 32 36 12 13 16 13 26 70 53 43 31 14 13 45 72 40 36 27 26 36 28 51 81 108 100 68
147 156 174 184 194 155 46 71 82 78 64 31 26 44 43 76 54 55 47 18 21 8 36 14 18 70 46 42 25 18 14 13 50 62 38 28 22 30 42 29 50 77 123 89 102
143 152 171 200 187 75 72 68 67 40 52 44 49 52 48 33 63 38 22 15 6 9 12 20 86 57 25 28 16 16 5 40 59 34 38 48 44 55 64 50 61 49 77 126 95
142 146 158 248 72 85 57 45 73 16 77 52 53 54 60 63 46 30 2 19 21 12 33 29 28 33 31 29 10 23 41 37 20 13 8 68 -4 91 48 43 40 55 76 87 95
145 146 150 108 96 79 70 59 50 39 108 68 87 72 76 48 73 39 22 32 26 35 36 62 29 19 24 24 20 79 48 34 21 9 22 57 29 32 66 30 52 38 43 64 86
159 140 142 28 51 66 64 77 43 112 128 78 85 68 74 69 65 94 76 66 77 53 28 39 50 31 21 45 30 62 16 21 23 13 27 46 49 18 29 65 59 35 40 62 92
191 154 81 69 92 96 90 73 107 148 81 80 89 89 75 65 67 53 68 64 60 53 26 19 14 31 26 39 56 21 13 20 41 54 31 92 63 30 46 33 26 33 55 56 94
210 123 36 63 81 112 91 81 131 111 127 74 102 83 76 68 71 87 51 30 -6 39 83 40 40 35 32 14 29 31 -0 15 53 27 53 70 60 45 60 21 22 13 24 45 81
141 27 54 61 83 97 105 61 82 99 120 109 83 61 79 65 102 72 56 34 48 19 67 60 72 68 62 74 25 78 67 -2 37 53 67 29 52 10 24 5 -10 7 48 57 85
56 47 77 92 83 110 105 75 91 104 102 91 90 116 66 57 60 46 60 63 66 39 21 91 109 87 91 54 68 109 68 80 50 52 57 61 44 18 26 1 30 39 59 103 85
35 58 79 92 134 133 110 117 98 103 139 158 112 104 118 89 93 35 62 107 74 51 26 47 101 84 57 27 51 81 71 59 44 82 41 36 42 86 26 9 23 50 87 103 153
67 76 61 127 144 151 121 194 143 106 129 133 132 152 145 121 97 104 103 156 100 46 51 63 74 52 19 89 57 72 51 36 33 66 38 55 27 66 45 21 25 68 121 131 154
84 83 64 119 145 109 169 113 111 98 106 109 123 147 150 163 125 145 178 173 163 74 67 82 69 25 34 57 63 36 32 39 40 72 47 26 23 58 38 28 50 64 159 140 157
63 71 81 106 140 228 109 99 103 154 133 137 144 117 125 148 160 152 126 157 195 168 134 59 93 28 10 94 48 10 -3 32 27 19 15 33 38 22 21 22 69 53 176 147 142
64 96 135 88 105 124 136 144 99 71 122 112 95 116 113 119 111 147 167 134 107 132 144 95 70 53 51 70 51 29 20 28 21 -30 50 26 40 17 60 61 36 86 187 147 134
73 98 71 104 116 110 111 130 110 123 97 64 103 99 93 116 150 135 194 182 196 116 111 114 95 71 33 50 52 45 4 13 27 21 43 33 35 92 51 50 47 66 129 111 92
40 49 97 79 87 93 105 107 141 130 126 176 139 89 85 156 170 176 135 159 154 162 150 118 90 70 23 62 35 46 16 17 6 21 33 14 57 88 44 43 36 25 80 67 86
Wind_Speed
35 35 35 36 35 35 35 35 35 35 34 33 32 31 30 30 30 33 31 13 38 40 39 42 41 42 38 36 35 39 40 36 36 37 25 37 32 33 34 38 36 38 42 42 41
37 38 38 38 38 38 37 38 38 38 38 37 36 35 33 32 32 27 27 33 37 44 41 43 40 45 41 39 37 37 35 31 28 17 19 23 27 32 32 35 35 36 39 41 42
39 40 40 41 40 40 41 42 41 41 41 40 39 38 35 33 31 26 24 30 39 41 40 42 44 44 43 38 28 28 26 34 28 20 19 21 28 28 27 29 29 29 33 37 40
42 42 43 43 43 43 44 44 44 44 44 43 41 40 38 33 30 28 23 27 33 34 38 38 39 34 24 20 24 31 28 31 25 21 20 23 23 25 22 25 37 32 33 36 37
44 45 45 46 47 47 46 47 47 47 46 44 42 39 36 34 27 27 21 23 23 22 31 30 32 21 19 18 20 24 26 29 26 23 18 19 17 19 19 25 28 30 31 33 34
47 48 48 49 49 50 50 50 50 48 47 44 41 37 36 32 31 22 17 19 19 19 19 16 16 27 22 26 28 22 27 24 25 21 20 16 16 21 29 30 30 30 30 31 31
50 51 52 52 52 52 53 53 52 50 47 42 37 35 37 35 31 21 19 23 21 22 16 22 25 35 31 18 33 34 26 20 25 22 29 15 21 27 27 29 30 30 29 29 29
53 54 55 55 55 56 56 55 53 47 39 33 33 36 37 33 30 21 21 23 22 21 23 25 32 33 37 38 13 15 17 17 28 26 30 17 40 34 27 27 30 29 27 26 26
55 56 58 58 58 58 57 55 44 37 33 31 35 37 35 31 30 20 23 27 20 19 24 30 33 30 29 31 21 15 29 24 27 30 34 29 35 33 28 25 26 25 24 22 24
56 57 59 60 60 59 56 44 36 35 35 37 38 39 35 31 24 20 21 20 23 13 20 21 26 24 19 14 26 25 23 23 23 30 39 28 27 31 24 21 20 22 20 20 20
57 58 59 60 61 57 47 39 39 36 35 40 31 36 27 25 19 19 17 17 17 13 19 20 24 23 27 30 32 29 28 29 19 30 35 33 29 25 21 19 19 18 16 16 19
58 59 59 59 59 52 41 40 35 40 46 39 44 41 33 30 24 14 13 18 15 17 20 23 28 29 25 24 27 26 27 20 23 24 31 34 32 23 17 16 16 15 14 15 17
57 58 58 59 54 40 38 32 38 39 44 35 33 35 30 28 29 12 3 22 22 21 21 34 27 31 14 18 21 19 21 25 29 36 23 33 15 21 23 20 17 13 14 15 18
57 57 56 57 38 39 35 34 43 35 43 32 32 30 29 29 37 22 7 18 26 30 26 34 31 27 17 20 22 23 24 25 30 28 39 32 48 25 25 24 20 17 13 14 16
57 56 54 46 45 37 32 39 36 32 47 28 27 24 26 19 18 24 9 21 29 23 22 26 23 15 20 24 19 27 25 31 32 25 36 21 35 30 26 27 35 30 17 14 15
58 56 53 37 39 40 37 40 32 40 47 30 26 27 22 23 23 15 10 34 37 27 34 42 29 27 25 22 8 21 26 25 27 27 26 32 31 33 34 37 35 32 29 15 15
61 58 49 41 36 38 39 32 41 50 32 29 28 27 28 22 23 15 13 14 21 27 32 30 31 27 25 17 12 24 23 30 31 27 38 32 30 25 36 32 33 31 32 17 17
61 53 38 43 42 41 35 39 51 41 37 29 30 33 33 23 29 25 18 17 13 35 32 31 31 20 20 13 23 17 16 33 43 42 34 32 37 38 32 29 30 29 26 20 18
56 39 38 37 42 40 39 52 45 39 37 34 33 31 33 29 38 25 26 21 19 17 33 29 35 24 26 29 16 25 26 24 41 35 49 39 33 31 27 25 25 29 27 22 19
44 39 37 42 35 35 51 61 45 38 38 37 39 41 35 33 35 31 23 29 25 16 26 32 35 26 26 25 29 34 23 23 21 37 49 30 33 37 38 32 27 28 26 21 19
38 37 36 27 33 41 52 54 49 39 38 39 39 35 35 38 43 26 22 25 20 17 21 30 37 24 27 28 23 22 25 25 41 39 53 37 27 22 36 40 37 25 21 21 20
37 39 31 33 35 44 54 48 43 40 41 39 38 39 36 38 37 35 30 31 24 18 19 17 34 39 35 27 35 37 39 27 28 26 36 54 55 26 32 41 33 23 20 20 20
36 34 32 36 46 45 44 42 43 42 46 43 40 42 42 42 39 35 30 25 28 25 19 14 30 25 26 27 28 38 30 30 34 46 51 54 40 30 33 33 30 20 18 18 19
37 35 31 36 39 47 42 46 41 41 43 44 42 44 47 47 39 35 28 25 31 31 35 25 35 33 42 37 26 23 35 27 22 40 39 29 51 46 34 35 29 17 15 16 17
37 37 37 38 37 40 43 43 49 45 48 48 51 52 49 50 47 41 36 30 27 29 31 31 40 34 45 43 39 47 37 29 25 19 45 45 35 43 38 40 41 22 12 12 15
39 39 36 38 37 37 38 45 48 47 47 48 57 48 48 52 48 40 40 37 34 33 32 33 39 37 41 34 34 40 42 39 22 32 47 51 47 40 41 42 41 27 11 9 12
35 36 41 37 40 43 40 37 39 42 42 40 42 47 47 43 46 50 48 50 50 44 38 38 38 37 43 29 36 45 48 44 42 42 44 50 38 40 43 44 42 34 15 5 8
Wind_Direction
313 313 305 302 301 297 297 292 285 286 279 274 272 269 263 257 238 187 214 196 159 168 167 155 171 171 174 159 177 179 97 61 40 15 37 95 103 97 84 77 73 67 59 65 86
308 308 304 299 297 295 292 293 285 282 280 275 276 272 266 261 218 240 266 86 165 139 142 145 125 153 137 156 181 165 80 33 344 214 184 135 116 98 104 88 74 72 67 80 90
303 302 301 298 295 293 293 290 285 283 279 276 275 270 266 256 242 306 306 55 98 154 151 146 152 169 148 186 235 193 19 97 112 195 182 141 104 114 107 89 84 85 85 92 96
301 299 298 296 290 290 290 288 285 283 280 277 276 271 269 262 273 308 13 59 83 199 113 112 126 113 75 38 287 123 81 179 179 188 152 109 113 103 117 90 57 75 93 100 101
299 296 295 292 290 287 285 286 282 282 278 277 276 279 273 275 302 315 19 51 46 7 90 90 103 67 66 4 18 75 43 168 193 200 153 134 136 147 124 81 72 77 93 103 101
299 296 293 291 290 286 286 284 279 277 278 275 275 285 283 282 295 322 2 13 351 9 26 18 352 275 305 297 295 2 150 158 187 168 110 127 117 98 65 64 76 84 93 101 101
298 296 293 290 289 286 283 281 280 279 278 281 284 291 285 285 292 316 331 314 324 302 354 304 287 256 275 357 288 188 163 101 60 103 66 123 108 86 67 68 75 82 88 96 99
297 296 294 290 288 286 283 281 279 284 294 302 297 287 286 292 289 308 314 313 318 310 301 296 275 280 266 274 301 31 130 146 22 62 55 116 27 46 67 71 73 81 84 91 101
296 295 294 292 289 287 283 283 289 298 301 305 292 285 287 298 283 303 298 296 312 313 304 284 279 297 301 300 338 21 322 352 2 16 19 55 29 42 58 77 75 77 82 93 106
297 295 293 292 291 288 284 291 298 299 297 292 288 281 287 287 293 296 298 304 302 333 318 317 308 318 339 8 326 328 336 349 354 2 351 29 41 44 60 78 76 75 82 102 114
298 296 293 291 290 288 289 295 292 293 287 280 295 283 297 300 306 293 301 310 313 318 305 314 307 315 311 308 308 322 330 331 4 354 355 1 17 36 57 74 68 74 83 106 122
300 298 294 292 288 283 285 284 294 291 282 284 275 278 282 286 290 293 300 295 297 298 302 308 299 311 318 325 316 322 329 354 353 0 354 353 359 19 55 67 61 68 80 109 122
300 298 295 292 285 285 283 288 293 292 279 286 282 277 278 277 282 277 223 291 289 288 296 288 314 312 329 330 330 336 331 341 336 338 355 347 4 30 39 48 47 75 83 115 130
297 297 295 292 286 286 279 286 287 288 274 278 277 281 272 272 275 278 222 293 294 286 296 294 298 312 323 318 323 328 331 333 335 348 330 354 321 10 25 29 44 56 87 112 119
293 293 289 289 281 277 282 283 285 283 265 280 275 285 269 249 293 269 231 278 287 300 299 310 314 308 306 308 323 324 334 328 331 345 336 355 342 357 18 10 9 19 51 97 106
290 287 284 287 277 274 278 278 276 264 261 276 275 266 259 254 273 278 237 269 279 291 286 282 304 305 306 312 336 333 330 336 339 339 335 337 348 354 355 352 357 9 16 56 91
287 281 275 276 273 275 271 266 259 254 271 267 267 263 260 252 265 255 212 239 276 284 285 293 292 302 303 314 319 314 323 321 326 328 321 343 343 346 351 0 354 357 2 39 83
286 280 282 269 267 266 260 253 252 261 260 275 268 265 259 252 261 259 251 245 230 279 296 291 296 290 300 276 305 303 298 305 313 314 327 344 335 341 358 360 6 6 7 44 72
286 287 278 273 266 258 249 247 256 259 260 264 265 261 259 257 261 258 259 251 263 270 288 300 298 315 310 306 286 306 295 298 304 315 310 323 339 350 9 12 17 10 16 44 57
291 281 278 275 267 257 247 246 258 265 264 262 261 260 259 254 260 255 258 272 273 268 283 302 298 307 317 315 304 294 315 308 303 306 304 328 333 329 355 2 13 6 17 36 48
287 279 288 282 265 252 249 254 259 264 267 265 264 268 269 261 260 255 263 296 281 278 273 292 289 311 311 305 308 301 299 300 301 302 292 317 338 0 350 345 347 14 44 53 60
287 276 283 273 256 256 253 259 265 259 264 269 271 270 269 265 263 263 270 288 295 307 278 273 295 288 296 311 300 295 291 297 297 306 303 289 287 350 342 342 354 23 59 59 41
289 285 283 267 258 255 262 262 264 262 258 263 266 266 263 262 266 269 273 289 296 292 290 286 290 298 306 308 302 287 292 291 292 290 286 282 312 341 336 341 358 19 57 52 55
286 279 280 268 272 263 258 255 258 263 258 260 263 263 258 259 269 273 278 286 295 291 286 283 285 289 289 312 314 290 288 289 281 285 291 314 291 315 333 335 353 18 63 68 70
287 280 276 268 268 264 258 260 254 257 256 255 257 258 258 259 262 270 277 285 288 291 289 277 282 288 287 291 292 285 292 288 279 281 283 296 310 311 325 325 331 6 35 67 70
286 279 276 274 271 265 261 258 254 255 255 256 256 258 261 260 265 264 274 273 279 284 284 282 282 287 289 295 296 288 286 286 286 285 291 291 299 314 317 319 326 351 44 96 85
298 288 275 273 266 262 263 259 258 259 263 264 262 261 261 264 272 274 273 271 271 274 279 278 281 283 283 298 293 286 283 286 284 286 290 290 305 313 313 312 321 327 346 18 92